NOAA NWS Hourly Roundups by Site

Regional Weather Roundup for Bismarck, ND

To Select Another Site Choose from List

Select Site:  

000
ASUS43 KBIS 210010
RWRBIS

NWR BROADCAST TEXT
NATIONAL WEATHER SERVICE BISMARCK ND
700 PM CDT WED OCT 20 2021

NOTE: "FAIR" INDICATES FEW OR NO CLOUDS BELOW 12,000 FEET WITH NO
SIGNIFICANT WEATHER AND/OR OBSTRUCTIONS TO VISIBILITY.


CITY           SKY/WX    TMP DP  RH WIND       PRES   REMARKS
WILLISTON      FAIR      35  23  61 E8        30.20S
MINOT          FAIR      39  27  62 N8        30.22R
MINOT AFB      FAIR      37  26  63 N7        30.21R
BISMARCK       FAIR      39  27  62 N8        30.20R
DICKINSON      FAIR      37  24  59 NE5       30.17R
GARRISON         N/A     36  26  67 VRB3      30.21R
HETTINGER ARPT FAIR      37  22  54 N8        30.18R
JAMESTOWN      FAIR      38  26  62 N13G23    30.11R
CARRINGTON     FAIR      37  30  75 N12       30.17S
HAZEN          FAIR      36  28  75 N6        30.23S
MANDAN         FAIR      36  28  75 N13G20    30.19R
OAKES          MIX PCPN  37  36  93 N13G22    30.07R
RUGBY          FAIR      34  28  80 N8        30.21R
STANLEY        FAIR      36  27  69 NE8       30.21F
TIOGA          FAIR      34  25  69 E9        30.22S
WATFORD CITY   FAIR      39  23  52 E8        30.21S
$$

CITY           SKY/WX    TMP DP  RH WIND       PRES   REMARKS
GRAND FORKS    MOCLDY    38  27  64 N15       30.12F
GRAND FORKS AF PTCLDY    39  28  65 N18       30.13S
DEVILS LAKE    FAIR      37  26  64 N15       30.18R
FARGO          CLOUDY    44  29  55 N16G25    30.06R
CANDO          FAIR      36 N/A N/A N15       30.21S
CAVALIER       FAIR      37  28  70 N12       30.19R
GRAFTON        FAIR      39  28  65 N18       30.17R
GWINNER        CLOUDY    39  39 100 N16       30.06R
LANGDON        FAIR      36  30  80 N9        30.18S
ROLLA          FAIR      34  27  75 N8        30.21S
WALHALLA       FAIR      36  27  69 N8        30.20S
$$

CITY           SKY/WX    TMP DP  RH WIND       PRES   REMARKS
ABERDEEN       RAIN      38  34  85 N14G24    30.07R
MOBRIDGE       FAIR      40  28  62 N15G24    30.12R
BUFFALO          N/A     41  26  55 NE6       30.13S
RAPID CITY     FAIR      33  31  92 NW7       30.16S
GLASGOW        FAIR      44  26  49 SE13      30.11F
SIDNEY         FAIR      41  25  53 E7        30.19F
WOLF POINT     FAIR      40  25  55 E6        30.16F
GLENDIVE       FAIR      42  28  57 SE3       30.16F
MILES CITY     FAIR      43  30  60 SE7       30.13F
BAKER          FAIR      37  25  61 SE7       30.16F
$$

CITY           SKY/WX    TMP DP  RH WIND       PRES   REMARKS
BILLINGS       FAIR      50  30  46 S6        30.07F
GREAT FALLS    FAIR      58  31  35 S8        29.95F
REGINA         PTCLDY    34  23  64 E10       30.21F
ESTEVAN        CLEAR     32  23  69 NE7       30.23F
$$



 

View Past Reports for Bismarck, ND.

Products Courtesy of NOAA-NWS
NWS Information Parsing Script by Ken True at Saratoga Weather - Script by SE Lincoln Weather.